Regional Weather Roundup
Issued by NWS

Home | Current Version | Previous Version | Graphics & Text | Print | Product List | Glossary On
Versions: 1 2 3 4 5 6 7 8 9 10 11 12 13 14 15 16 17 18 19 20 21 22 23 24 25 26 27 28 29 30 31 32 33 34 35 36 37 38 39 40 41 42 43 44 45 46 47 48 49 50
000
ASUS43 KIND 090459
RWRIN

WEATHER ROUNDUP FOR INDIANA
NATIONAL WEATHER SERVICE INDIANAPOLIS IN
1200 AM EST TUE FEB 09 2016

NOTE: "FAIR" INDICATES FEW OR NO CLOUDS BELOW 12,000 FEET WITH NO
SIGNIFICANT WEATHER AND/OR OBSTRUCTIONS TO VISIBILITY.

* - STATION DOES NOT REPORT WEATHER SUCH AS PRECIPITATION OR FOG.

+ - STATION NOT QUALITY CONTROLLED BY THE NATIONAL WEATHER SERVICE.
    USE DATA WITH CAUTION...ESPECIALLY DEWPOINT AND RELATIVE
    HUMIDITY OBSERVATIONS.

INZ001>003-010>013-019-020-090600-
NORTHWEST INDIANA

CITY           SKY/WX    TMP DP  RH WIND       PRES   REMARKS
RENSSELAER +   CLOUDY    27  19  74 W13G18    29.74S WCI  16
VALPARAISO     CLOUDY    26  21  81 W14       29.72S WCI  14

$$

LMZ046-743>745-090600-
SOUTHERN LAKE MICHIGAN

STATION/POSITION TIME  TEMP    WIND        PRES    WAVE
                       AIR SEA DIR/SP/G            HT
                 (UTC) (F)     (DEG/KT/KT) (MB)    (FT)
BURNS HARBOR     0400   27     290/ 14/ 18 1006.8F
MICHIGAN CITY    0400   27     280/ 20/ 21   N/A

$$

INZ004-005-014>016-021>024-090600-
NORTH CENTRAL INDIANA

CITY           SKY/WX    TMP DP  RH WIND       PRES   REMARKS
GOSHEN         LGT SNOW  27  24  89 W12       29.66S FOG     WCI  17
PERU/GRISSOM   MIX PCPN  24  21  88 W13       29.69S WCI  12
SOUTH BEND     CLOUDY    26  24  92 W10       29.68F WCI  16

$$

INZ006>009-017-018-025>027-090600-
NORTHEAST INDIANA

CITY           SKY/WX    TMP DP  RH WIND       PRES   REMARKS
ANGOLA *+      CLOUDY    28  25  86 W8        29.61F WCI  20
FORT WAYNE     LGT SNOW  28  23  81 W13       29.67S WCI  17

$$

INZ028-029-035-036-043>045-051>053-090600-
WEST CENTRAL INDIANA

CITY           SKY/WX    TMP DP  RH WIND       PRES   REMARKS
GREENCASTLE +  FLURRIES  21  12  68 W6        29.78F WCI  14
LAFAYETTE      CLOUDY    22  18  85 W14       29.76S WCI   9
TERRE HAUTE    FLURRIES  21  15  78 W12       29.82F WCI   9

$$

INZ030>032-037>040-046>048-054>057-064-065-090600-
CENTRAL INDIANA

CITY           SKY/WX    TMP DP  RH WIND       PRES   REMARKS
GREENWOOD *+   CLOUDY    23  19  86 W13G22    29.75F WCI  11
INDIANAPOLIS   FLURRIES  22  16  78 W16       29.75S WCI   8
-EAGLE CREEK   CLOUDY    22  17  81 W10       29.74F WCI  11
KOKOMO *+      CLOUDY    25  19  80 W16       29.71S WCI  12
MT COMFORT *+  CLOUDY    23  18  80 W14       29.73F WCI  11
SHELBYVILLE    CLOUDY    23  17  78 W15       29.74F WCI  10

$$

INZ033-034-041-042-049-050-058-059-090600-
EAST CENTRAL INDIANA

CITY           SKY/WX    TMP DP  RH WIND       PRES   REMARKS
MUNCIE         LGT SNOW  25  21  85 W10       29.69F FOG     WCI  15

$$

INZ060-061-067>069-081>083-085>088-090600-
SOUTHWEST INDIANA

CITY           SKY/WX    TMP DP  RH WIND       PRES   REMARKS
EVANSVILLE     CLOUDY    24  13  62 NW10G16   29.89F WCI  14
HUNTINGBURG *+ CLOUDY    21  12  68 NW12      29.86F WCI   9

$$

INZ062-063-066-070>080-084-089>092-090600-
SOUTH CENTRAL AND SOUTHEAST INDIANA

CITY           SKY/WX    TMP DP  RH WIND       PRES   REMARKS
BLOOMINGTON    FLURRIES  21  15  78 W9        29.78F WCI  11
MADISON *+     CLOUDY    23  18  80 W8        29.79F WCI  14
SEYMOUR +      FLURRIES  25  18  74 W13       29.80F WCI  13

$$




USA.gov is the U.S. government's official web portal to all federal, state and local government web resources and services.